Year,Month,Day,Hour,Minute,Value (Times are PST for temperature in C)
2017,06,24,00,00,17.00
2017,06,24,00,01,17.00
2017,06,24,00,02,16.90
2017,06,24,00,03,16.80
2017,06,24,00,04,16.80
2017,06,24,00,05,16.70
2017,06,24,00,06,16.70
2017,06,24,00,07,16.60
2017,06,24,00,08,16.60
2017,06,24,00,09,16.60
2017,06,24,00,10,16.60
2017,06,24,00,11,16.60
2017,06,24,00,12,16.60
2017,06,24,00,13,16.50
2017,06,24,00,14,16.50
2017,06,24,00,15,16.50
2017,06,24,00,16,16.50
2017,06,24,00,17,16.50
2017,06,24,00,18,16.50
2017,06,24,00,19,16.50
2017,06,24,00,20,16.50
2017,06,24,00,21,16.50
2017,06,24,00,22,16.50
2017,06,24,00,23,16.40
2017,06,24,00,24,16.40
2017,06,24,00,25,16.40
2017,06,24,00,26,16.40
2017,06,24,00,27,16.40
2017,06,24,00,28,16.40
2017,06,24,00,29,16.40
2017,06,24,00,30,16.40
2017,06,24,00,31,16.30
2017,06,24,00,32,16.30
2017,06,24,00,33,16.20
2017,06,24,00,34,16.10
2017,06,24,00,35,16.00
2017,06,24,00,36,15.90
2017,06,24,00,37,15.90
2017,06,24,00,38,15.80
2017,06,24,00,39,15.70
2017,06,24,00,40,15.70
2017,06,24,00,41,15.60
2017,06,24,00,42,15.50
2017,06,24,00,43,15.50
2017,06,24,00,44,15.40
2017,06,24,00,45,15.30
2017,06,24,00,46,15.30
2017,06,24,00,47,15.20
2017,06,24,00,48,15.20
2017,06,24,00,49,15.20
2017,06,24,00,50,15.10
2017,06,24,00,51,15.10
2017,06,24,00,52,15.10
2017,06,24,00,53,15.10
2017,06,24,00,54,15.10
2017,06,24,00,55,15.10
2017,06,24,00,56,15.10
2017,06,24,00,57,15.00
2017,06,24,00,58,15.00
2017,06,24,00,59,15.00
2017,06,24,01,00,15.00
2017,06,24,01,01,14.90
2017,06,24,01,02,14.90
2017,06,24,01,03,14.90
2017,06,24,01,04,14.90
2017,06,24,01,05,14.90
2017,06,24,01,06,14.80
2017,06,24,01,07,14.80
2017,06,24,01,08,14.80
2017,06,24,01,09,14.80
2017,06,24,01,10,14.70
2017,06,24,01,11,14.70
2017,06,24,01,12,14.70
2017,06,24,01,13,14.70
2017,06,24,01,14,14.60
2017,06,24,01,15,14.60
2017,06,24,01,16,14.50
2017,06,24,01,17,14.50
2017,06,24,01,18,14.50
2017,06,24,01,19,14.40
2017,06,24,01,20,14.40
2017,06,24,01,21,14.40
2017,06,24,01,22,14.40
2017,06,24,01,23,14.30
2017,06,24,01,24,14.30
2017,06,24,01,25,14.30
2017,06,24,01,26,14.30
2017,06,24,01,27,14.20
2017,06,24,01,28,14.20
2017,06,24,01,29,14.20
2017,06,24,01,30,14.20
2017,06,24,01,31,14.10
2017,06,24,01,32,14.10
2017,06,24,01,33,14.10
2017,06,24,01,34,14.10
2017,06,24,01,35,14.00
2017,06,24,01,36,14.00
2017,06,24,01,37,14.00
2017,06,24,01,38,13.90
2017,06,24,01,39,13.90
2017,06,24,01,40,13.90
2017,06,24,01,41,13.90
2017,06,24,01,42,13.90
2017,06,24,01,43,13.90
2017,06,24,01,44,13.80
2017,06,24,01,45,13.80
2017,06,24,01,46,13.80
2017,06,24,01,47,13.80
2017,06,24,01,48,13.80
2017,06,24,01,49,13.80
2017,06,24,01,50,13.80
2017,06,24,01,51,13.80
2017,06,24,01,52,13.80
2017,06,24,01,53,13.80
2017,06,24,01,54,13.70
2017,06,24,01,55,13.70
2017,06,24,01,56,13.70
2017,06,24,01,57,13.70
2017,06,24,01,58,13.70
2017,06,24,01,59,13.70
2017,06,24,02,00,13.70
2017,06,24,02,01,13.60
2017,06,24,02,02,13.60
2017,06,24,02,03,13.60
2017,06,24,02,04,13.60
2017,06,24,02,05,13.50
2017,06,24,02,06,13.50
2017,06,24,02,07,13.50
2017,06,24,02,08,13.50
2017,06,24,02,09,13.40
2017,06,24,02,10,13.40
2017,06,24,02,11,13.40
2017,06,24,02,12,13.40
2017,06,24,02,13,13.40
2017,06,24,02,14,13.40
2017,06,24,02,15,13.40
2017,06,24,02,16,13.30
2017,06,24,02,17,13.30
2017,06,24,02,18,13.30
2017,06,24,02,19,13.30
2017,06,24,02,20,13.30
2017,06,24,02,21,13.30
2017,06,24,02,22,13.30
2017,06,24,02,23,13.20
2017,06,24,02,24,13.20
2017,06,24,02,25,13.20
2017,06,24,02,26,13.20
2017,06,24,02,27,13.20
2017,06,24,02,28,13.20
2017,06,24,02,29,13.20
2017,06,24,02,30,13.20
2017,06,24,02,31,13.20
2017,06,24,02,32,13.10
2017,06,24,02,33,13.10
2017,06,24,02,34,13.20
2017,06,24,02,35,13.20
2017,06,24,02,36,13.10
2017,06,24,02,37,13.10
2017,06,24,02,38,13.00
2017,06,24,02,39,13.00
2017,06,24,02,40,13.00
2017,06,24,02,41,13.00
2017,06,24,02,42,13.00
2017,06,24,02,43,12.90
2017,06,24,02,44,12.90
2017,06,24,02,45,12.90
2017,06,24,02,46,12.90
2017,06,24,02,47,12.90
2017,06,24,02,48,12.90
2017,06,24,02,49,12.90
2017,06,24,02,50,12.90
2017,06,24,02,51,12.90
2017,06,24,02,52,12.90
2017,06,24,02,53,12.90
2017,06,24,02,54,12.90
2017,06,24,02,55,12.90
2017,06,24,02,56,12.90
2017,06,24,02,57,12.90
2017,06,24,02,58,12.80
2017,06,24,02,59,12.80
2017,06,24,03,00,12.80
2017,06,24,03,01,12.80
2017,06,24,03,02,12.80
2017,06,24,03,03,12.80
2017,06,24,03,04,12.80
2017,06,24,03,05,12.80
2017,06,24,03,06,12.80
2017,06,24,03,07,12.70
2017,06,24,03,08,12.70
2017,06,24,03,09,12.70
2017,06,24,03,10,12.70
2017,06,24,03,11,12.70
2017,06,24,03,12,12.70
2017,06,24,03,13,12.70
2017,06,24,03,14,12.70
2017,06,24,03,15,12.70
2017,06,24,03,16,12.70
2017,06,24,03,17,12.60
2017,06,24,03,18,12.60
2017,06,24,03,19,12.60
2017,06,24,03,20,12.60
2017,06,24,03,21,12.60
2017,06,24,03,22,12.60
2017,06,24,03,23,12.60
2017,06,24,03,24,12.50
2017,06,24,03,25,12.50
2017,06,24,03,26,12.50
2017,06,24,03,27,12.50
2017,06,24,03,28,12.40
2017,06,24,03,29,12.40
2017,06,24,03,30,12.40
2017,06,24,03,31,12.40
2017,06,24,03,32,12.40
2017,06,24,03,33,12.40
2017,06,24,03,34,12.40
2017,06,24,03,35,12.40
2017,06,24,03,36,12.40
2017,06,24,03,37,12.40
2017,06,24,03,38,12.40
2017,06,24,03,39,12.30
2017,06,24,03,40,12.30
2017,06,24,03,41,12.30
2017,06,24,03,42,12.30
2017,06,24,03,43,12.30
2017,06,24,03,44,12.30
2017,06,24,03,45,12.30
2017,06,24,03,46,12.30
2017,06,24,03,47,12.20
2017,06,24,03,48,12.20
2017,06,24,03,49,12.20
2017,06,24,03,50,12.20
2017,06,24,03,51,12.20
2017,06,24,03,52,12.20
2017,06,24,03,53,12.20
2017,06,24,03,54,12.20
2017,06,24,03,55,12.20
2017,06,24,03,56,12.20
2017,06,24,03,57,12.20
2017,06,24,03,58,12.20
2017,06,24,03,59,12.20
2017,06,24,04,00,12.20
2017,06,24,04,01,12.20
2017,06,24,04,02,12.20
2017,06,24,04,03,12.20
2017,06,24,04,04,12.20
2017,06,24,04,05,12.20
2017,06,24,04,06,12.20
2017,06,24,04,07,12.20
2017,06,24,04,08,12.20
2017,06,24,04,09,12.20
2017,06,24,04,10,12.20
2017,06,24,04,11,12.20
2017,06,24,04,12,12.20
2017,06,24,04,13,12.20
2017,06,24,04,14,12.20
2017,06,24,04,15,12.20
2017,06,24,04,16,12.20
2017,06,24,04,17,12.20
2017,06,24,04,18,12.10
2017,06,24,04,19,12.10
2017,06,24,04,20,12.10
2017,06,24,04,21,12.10
2017,06,24,04,22,12.10
2017,06,24,04,23,12.10
2017,06,24,04,24,12.10
2017,06,24,04,25,12.10
2017,06,24,04,26,12.10
2017,06,24,04,27,12.10
2017,06,24,04,28,12.10
2017,06,24,04,29,12.10
2017,06,24,04,30,12.10
2017,06,24,04,31,12.10
2017,06,24,04,32,12.00
2017,06,24,04,33,12.00
2017,06,24,04,34,12.00
2017,06,24,04,35,12.00
2017,06,24,04,36,12.00
2017,06,24,04,37,12.00
2017,06,24,04,38,12.00
2017,06,24,04,39,11.90
2017,06,24,04,40,11.90
2017,06,24,04,41,11.90
2017,06,24,04,42,11.90
2017,06,24,04,43,11.90
2017,06,24,04,44,11.90
2017,06,24,04,45,11.90
2017,06,24,04,46,11.90
2017,06,24,04,47,11.90
2017,06,24,04,48,11.90
2017,06,24,04,49,11.90
2017,06,24,04,50,11.90
2017,06,24,04,51,11.90
2017,06,24,04,52,11.80
2017,06,24,04,53,11.80
2017,06,24,04,54,11.80
2017,06,24,04,55,11.80
2017,06,24,04,56,11.80
2017,06,24,04,57,11.80
2017,06,24,04,58,11.80
2017,06,24,04,59,11.80
2017,06,24,05,00,11.80
2017,06,24,05,01,11.80
2017,06,24,05,02,11.80
2017,06,24,05,03,11.80
2017,06,24,05,04,11.80
2017,06,24,05,05,11.90
2017,06,24,05,06,11.90
2017,06,24,05,07,11.90
2017,06,24,05,08,11.90
2017,06,24,05,09,11.90
2017,06,24,05,10,11.90
2017,06,24,05,11,11.80
2017,06,24,05,12,11.80
2017,06,24,05,13,11.80
2017,06,24,05,14,11.80
2017,06,24,05,15,11.80
2017,06,24,05,16,11.80
2017,06,24,05,17,11.80
2017,06,24,05,18,11.80
2017,06,24,05,19,11.80
2017,06,24,05,20,11.80
2017,06,24,05,21,11.80
2017,06,24,05,22,11.80
2017,06,24,05,23,11.80
2017,06,24,05,24,11.80
2017,06,24,05,25,11.80
2017,06,24,05,26,11.80
2017,06,24,05,27,11.80
2017,06,24,05,28,11.80
2017,06,24,05,29,11.80
2017,06,24,05,30,11.70
2017,06,24,05,31,11.70
2017,06,24,05,32,11.70
2017,06,24,05,33,11.70
2017,06,24,05,34,11.70
2017,06,24,05,35,11.70
2017,06,24,05,36,11.70
2017,06,24,05,37,11.70
2017,06,24,05,38,11.70
2017,06,24,05,39,11.70
2017,06,24,05,40,11.70
2017,06,24,05,41,11.70
2017,06,24,05,42,11.70
2017,06,24,05,43,11.70
2017,06,24,05,44,11.80
2017,06,24,05,45,11.80
2017,06,24,05,46,11.90
2017,06,24,05,47,11.90
2017,06,24,05,48,12.00
2017,06,24,05,49,12.10
2017,06,24,05,50,12.20
2017,06,24,05,51,12.30
2017,06,24,05,52,12.30
2017,06,24,05,53,12.40
2017,06,24,05,54,12.50
2017,06,24,05,55,12.60
2017,06,24,05,56,12.60
2017,06,24,05,57,12.70
2017,06,24,05,58,12.80
2017,06,24,05,59,13.00
2017,06,24,06,00,13.10
2017,06,24,06,01,13.10
2017,06,24,06,02,13.20
2017,06,24,06,03,13.30
2017,06,24,06,04,13.40
2017,06,24,06,05,13.40
2017,06,24,06,06,13.50
2017,06,24,06,07,13.50
2017,06,24,06,08,13.60
2017,06,24,06,09,13.70
2017,06,24,06,10,13.70
2017,06,24,06,11,13.80
2017,06,24,06,12,13.90
2017,06,24,06,13,14.00
2017,06,24,06,14,14.10
2017,06,24,06,15,14.20
2017,06,24,06,16,14.20
2017,06,24,06,17,14.30
2017,06,24,06,18,14.40
2017,06,24,06,19,14.40
2017,06,24,06,20,14.50
2017,06,24,06,21,14.60
2017,06,24,06,22,14.70
2017,06,24,06,23,14.70
2017,06,24,06,24,14.80
2017,06,24,06,25,14.80
2017,06,24,06,26,14.90
2017,06,24,06,27,15.00
2017,06,24,06,28,15.20
2017,06,24,06,29,15.30
2017,06,24,06,30,15.40
2017,06,24,06,31,15.50
2017,06,24,06,32,15.60
2017,06,24,06,33,15.70
2017,06,24,06,34,15.80
2017,06,24,06,35,16.00
2017,06,24,06,36,16.10
2017,06,24,06,37,16.20
2017,06,24,06,38,16.30
2017,06,24,06,39,16.40
2017,06,24,06,40,16.50
2017,06,24,06,41,16.70
2017,06,24,06,42,16.80
2017,06,24,06,43,16.90
2017,06,24,06,44,17.00
2017,06,24,06,45,17.10
2017,06,24,06,46,17.20
2017,06,24,06,47,17.30
2017,06,24,06,48,17.50
2017,06,24,06,49,17.60
2017,06,24,06,50,17.70
2017,06,24,06,51,17.80
2017,06,24,06,52,18.00
2017,06,24,06,53,18.00
2017,06,24,06,54,18.20
2017,06,24,06,55,18.30
2017,06,24,06,56,18.40
2017,06,24,06,57,18.50
2017,06,24,06,58,18.50
2017,06,24,06,59,18.60
2017,06,24,07,00,18.70
2017,06,24,07,01,18.70
2017,06,24,07,02,18.80
2017,06,24,07,03,18.80
2017,06,24,07,04,18.80
2017,06,24,07,05,18.80
2017,06,24,07,06,18.80
2017,06,24,07,07,18.80
2017,06,24,07,08,18.80
2017,06,24,07,09,18.80
2017,06,24,07,10,18.80
2017,06,24,07,11,18.80
2017,06,24,07,12,18.90
2017,06,24,07,13,18.90
2017,06,24,07,14,18.90
2017,06,24,07,15,18.90
2017,06,24,07,16,18.90
2017,06,24,07,17,18.90
2017,06,24,07,18,18.90
2017,06,24,07,19,18.90
2017,06,24,07,20,18.90
2017,06,24,07,21,19.00
2017,06,24,07,22,19.00
2017,06,24,07,23,19.10
2017,06,24,07,24,19.10
2017,06,24,07,25,19.20
2017,06,24,07,26,19.30
2017,06,24,07,27,19.40
2017,06,24,07,28,19.40
2017,06,24,07,29,19.40
2017,06,24,07,30,19.50
2017,06,24,07,31,19.50
2017,06,24,07,32,19.50
2017,06,24,07,33,19.50
2017,06,24,07,34,19.60
2017,06,24,07,35,19.60
2017,06,24,07,36,19.60
2017,06,24,07,37,19.60
2017,06,24,07,38,19.60
2017,06,24,07,39,19.60
2017,06,24,07,40,19.60
2017,06,24,07,41,19.70
2017,06,24,07,42,19.70
2017,06,24,07,43,19.70
2017,06,24,07,44,19.70
2017,06,24,07,45,19.70
2017,06,24,07,46,19.70
2017,06,24,07,47,19.70
2017,06,24,07,48,19.80
2017,06,24,07,49,19.80
2017,06,24,07,50,19.80
2017,06,24,07,51,19.90
2017,06,24,07,52,19.90
2017,06,24,07,53,19.90
2017,06,24,07,54,20.00
2017,06,24,07,55,20.00
2017,06,24,07,56,20.10
2017,06,24,07,57,20.20
2017,06,24,07,58,20.20
2017,06,24,07,59,20.30
2017,06,24,08,00,20.40
2017,06,24,08,01,20.40
2017,06,24,08,02,20.40
2017,06,24,08,03,20.50
2017,06,24,08,04,20.50
2017,06,24,08,05,20.50
2017,06,24,08,06,20.60
2017,06,24,08,07,20.60
2017,06,24,08,08,20.70
2017,06,24,08,09,20.70
2017,06,24,08,10,20.70
2017,06,24,08,11,20.70
2017,06,24,08,12,20.70
2017,06,24,08,13,20.70
2017,06,24,08,14,20.70
2017,06,24,08,15,20.80
2017,06,24,08,16,20.80
2017,06,24,08,17,20.80
2017,06,24,08,18,20.80
2017,06,24,08,19,20.90
2017,06,24,08,20,20.90
2017,06,24,08,21,21.00
2017,06,24,08,22,21.00
2017,06,24,08,23,21.00
2017,06,24,08,24,21.00
2017,06,24,08,25,21.00
2017,06,24,08,26,21.00
2017,06,24,08,27,21.10
2017,06,24,08,28,21.10
2017,06,24,08,29,21.20
2017,06,24,08,30,21.20
2017,06,24,08,31,21.30
2017,06,24,08,32,21.30
2017,06,24,08,33,21.30
2017,06,24,08,34,21.30
2017,06,24,08,35,21.30
2017,06,24,08,36,21.30
2017,06,24,08,37,21.30
2017,06,24,08,38,21.30
2017,06,24,08,39,21.40
2017,06,24,08,40,21.40
2017,06,24,08,41,21.40
2017,06,24,08,42,21.40
2017,06,24,08,43,21.50
2017,06,24,08,44,21.50
2017,06,24,08,45,21.60
2017,06,24,08,46,21.50
2017,06,24,08,47,21.50
2017,06,24,08,48,21.60
2017,06,24,08,49,21.60
2017,06,24,08,50,21.60
2017,06,24,08,51,21.60
2017,06,24,08,52,21.60
2017,06,24,08,53,21.60
2017,06,24,08,54,21.60
2017,06,24,08,55,21.60
2017,06,24,08,56,21.70
2017,06,24,08,57,21.80
2017,06,24,08,58,21.80
2017,06,24,08,59,21.90
2017,06,24,09,00,22.00
2017,06,24,09,01,22.10
2017,06,24,09,02,22.10
2017,06,24,09,03,22.10
2017,06,24,09,04,22.10
2017,06,24,09,05,22.20
2017,06,24,09,06,22.20
2017,06,24,09,07,22.20
2017,06,24,09,08,22.20
2017,06,24,09,09,22.20
2017,06,24,09,10,22.20
2017,06,24,09,11,22.20
2017,06,24,09,12,22.20
2017,06,24,09,13,22.20
2017,06,24,09,14,22.30
2017,06,24,09,15,22.30
2017,06,24,09,16,22.40
2017,06,24,09,17,22.50
2017,06,24,09,18,22.60
2017,06,24,09,19,22.60
2017,06,24,09,20,22.60
2017,06,24,09,21,22.60
2017,06,24,09,22,22.60
2017,06,24,09,23,22.60
2017,06,24,09,24,22.60
2017,06,24,09,25,22.60
2017,06,24,09,26,22.70
2017,06,24,09,27,22.70
2017,06,24,09,28,22.80
2017,06,24,09,29,22.90
2017,06,24,09,30,22.90
2017,06,24,09,31,23.00
2017,06,24,09,32,23.10
2017,06,24,09,33,23.20
2017,06,24,09,34,23.20
2017,06,24,09,35,23.20
2017,06,24,09,36,23.20
2017,06,24,09,37,23.10
2017,06,24,09,38,23.00
2017,06,24,09,39,23.00
2017,06,24,09,40,22.90
2017,06,24,09,41,22.90
2017,06,24,09,42,23.00
2017,06,24,09,43,23.00
2017,06,24,09,44,23.00
2017,06,24,09,45,23.00
2017,06,24,09,46,23.10
2017,06,24,09,47,23.10
2017,06,24,09,48,23.20
2017,06,24,09,49,23.20
2017,06,24,09,50,23.30
2017,06,24,09,51,23.30
2017,06,24,09,52,23.40
2017,06,24,09,53,23.50
2017,06,24,09,54,23.60
2017,06,24,09,55,23.60
2017,06,24,09,56,23.60
2017,06,24,09,57,23.60
2017,06,24,09,58,23.70
2017,06,24,09,59,23.70
2017,06,24,10,00,23.80
2017,06,24,10,01,23.80
2017,06,24,10,02,23.70
2017,06,24,10,03,23.60
2017,06,24,10,04,23.50
2017,06,24,10,05,23.40
2017,06,24,10,06,23.30
2017,06,24,10,07,23.30
2017,06,24,10,08,23.30
2017,06,24,10,09,23.30
2017,06,24,10,10,23.30
2017,06,24,10,11,23.30
2017,06,24,10,12,23.20
2017,06,24,10,13,23.20
2017,06,24,10,14,23.30
2017,06,24,10,15,23.30
2017,06,24,10,16,23.40
2017,06,24,10,17,23.40
2017,06,24,10,18,23.40
2017,06,24,10,19,23.40
2017,06,24,10,20,23.40
2017,06,24,10,21,23.40
2017,06,24,10,22,23.40
2017,06,24,10,23,23.30
2017,06,24,10,24,23.30
2017,06,24,10,25,23.30
2017,06,24,10,26,23.30
2017,06,24,10,27,23.30
2017,06,24,10,28,23.40
2017,06,24,10,29,23.40
2017,06,24,10,30,23.40
2017,06,24,10,31,23.50
2017,06,24,10,32,23.60
2017,06,24,10,33,23.60
2017,06,24,10,34,23.70
2017,06,24,10,35,23.70
2017,06,24,10,36,23.80
2017,06,24,10,37,23.80
2017,06,24,10,38,23.70
2017,06,24,10,39,23.70
2017,06,24,10,40,23.70
2017,06,24,10,41,23.70
2017,06,24,10,42,23.70
2017,06,24,10,43,23.70
2017,06,24,10,44,23.70
2017,06,24,10,45,23.70
2017,06,24,10,46,23.70
2017,06,24,10,47,23.70
2017,06,24,10,48,23.70
2017,06,24,10,49,23.80
2017,06,24,10,50,23.80
2017,06,24,10,51,23.90
2017,06,24,10,52,24.10
2017,06,24,10,53,24.20
2017,06,24,10,54,24.30
2017,06,24,10,55,24.30
2017,06,24,10,56,24.30
2017,06,24,10,57,24.30
2017,06,24,10,58,24.20
2017,06,24,10,59,24.20
2017,06,24,11,00,24.20
2017,06,24,11,01,24.20
2017,06,24,11,02,24.20
2017,06,24,11,03,24.30
2017,06,24,11,04,24.30
2017,06,24,11,05,24.30
2017,06,24,11,06,24.40
2017,06,24,11,07,24.40
2017,06,24,11,08,24.50
2017,06,24,11,09,24.50
2017,06,24,11,10,24.60
2017,06,24,11,11,24.60
2017,06,24,11,12,24.60
2017,06,24,11,13,24.60
2017,06,24,11,14,24.70
2017,06,24,11,15,24.70
2017,06,24,11,16,24.70
2017,06,24,11,17,24.60
2017,06,24,11,18,24.60
2017,06,24,11,19,24.50
2017,06,24,11,20,24.50
2017,06,24,11,21,24.40
2017,06,24,11,22,24.50
2017,06,24,11,23,24.60
2017,06,24,11,24,24.60
2017,06,24,11,25,24.60
2017,06,24,11,26,24.70
2017,06,24,11,27,24.70
2017,06,24,11,28,24.70
2017,06,24,11,29,24.80
2017,06,24,11,30,24.80
2017,06,24,11,31,24.90
2017,06,24,11,32,24.90
2017,06,24,11,33,24.90
2017,06,24,11,34,24.90
2017,06,24,11,35,25.00
2017,06,24,11,36,25.00
2017,06,24,11,37,25.10
2017,06,24,11,38,25.10
2017,06,24,11,39,25.20
2017,06,24,11,40,25.20
2017,06,24,11,41,25.20
2017,06,24,11,42,25.20
2017,06,24,11,43,25.30
2017,06,24,11,44,25.30
2017,06,24,11,45,25.20
2017,06,24,11,46,25.30
2017,06,24,11,47,25.30
2017,06,24,11,48,25.30
2017,06,24,11,49,25.30
2017,06,24,11,50,25.30
2017,06,24,11,51,25.30
2017,06,24,11,52,25.30
2017,06,24,11,53,25.30
2017,06,24,11,54,25.30
2017,06,24,11,55,25.20
2017,06,24,11,56,25.30
2017,06,24,11,57,25.30
2017,06,24,11,58,25.30
2017,06,24,11,59,25.40
2017,06,24,12,00,25.40
2017,06,24,12,01,25.40
2017,06,24,12,02,25.50
2017,06,24,12,03,25.60
2017,06,24,12,04,25.60
2017,06,24,12,05,25.50
2017,06,24,12,06,25.40
2017,06,24,12,07,25.40
2017,06,24,12,08,25.30
2017,06,24,12,09,25.20
2017,06,24,12,10,25.10
2017,06,24,12,11,25.10
2017,06,24,12,12,25.10
2017,06,24,12,13,25.10
2017,06,24,12,14,25.20
2017,06,24,12,15,25.20
2017,06,24,12,16,25.30
2017,06,24,12,17,25.20
2017,06,24,12,18,25.20
2017,06,24,12,19,25.20
2017,06,24,12,20,25.30
2017,06,24,12,21,25.40
2017,06,24,12,22,25.50
2017,06,24,12,23,25.70
2017,06,24,12,24,25.70
2017,06,24,12,25,25.70
2017,06,24,12,26,25.70
2017,06,24,12,27,25.70
2017,06,24,12,28,25.80
2017,06,24,12,29,25.80
2017,06,24,12,30,25.80
2017,06,24,12,31,25.80
2017,06,24,12,32,25.80
2017,06,24,12,33,25.80
2017,06,24,12,34,25.70
2017,06,24,12,35,25.60
2017,06,24,12,36,25.60
2017,06,24,12,37,25.70
2017,06,24,12,38,25.70
2017,06,24,12,39,25.80
2017,06,24,12,40,25.90
2017,06,24,12,41,25.90
2017,06,24,12,42,25.90
2017,06,24,12,43,25.90
2017,06,24,12,44,25.90
2017,06,24,12,45,25.80
2017,06,24,12,46,25.80
2017,06,24,12,47,25.70
2017,06,24,12,48,25.70
2017,06,24,12,49,25.70
2017,06,24,12,50,25.80
2017,06,24,12,51,25.70
2017,06,24,12,52,25.70
2017,06,24,12,53,25.60
2017,06,24,12,54,25.50
2017,06,24,12,55,25.50
2017,06,24,12,56,25.40
2017,06,24,12,57,25.40
2017,06,24,12,58,25.40
2017,06,24,12,59,25.50
2017,06,24,13,00,25.60
2017,06,24,13,01,25.70
2017,06,24,13,02,25.80
2017,06,24,13,03,25.80
2017,06,24,13,04,25.80
2017,06,24,13,05,25.80
2017,06,24,13,06,25.70
2017,06,24,13,07,25.40
2017,06,24,13,08,25.40
2017,06,24,13,09,25.40
2017,06,24,13,10,25.50
2017,06,24,13,11,25.50
2017,06,24,13,12,25.70
2017,06,24,13,13,25.70
2017,06,24,13,14,25.70
2017,06,24,13,15,25.60
2017,06,24,13,16,25.70
2017,06,24,13,17,25.70
2017,06,24,13,18,25.70
2017,06,24,13,19,25.80
2017,06,24,13,20,25.90
2017,06,24,13,21,26.00
2017,06,24,13,22,26.10
2017,06,24,13,23,26.20
2017,06,24,13,24,26.20
2017,06,24,13,25,26.20
2017,06,24,13,26,26.10
2017,06,24,13,27,26.10
2017,06,24,13,28,26.10
2017,06,24,13,29,26.20
2017,06,24,13,30,26.20
2017,06,24,13,31,26.30
2017,06,24,13,32,26.40
2017,06,24,13,33,26.40
2017,06,24,13,34,26.40
2017,06,24,13,35,26.40
2017,06,24,13,36,26.50
2017,06,24,13,37,26.40
2017,06,24,13,38,26.40
2017,06,24,13,39,26.30
2017,06,24,13,40,26.30
2017,06,24,13,41,26.30
2017,06,24,13,42,26.30
2017,06,24,13,43,26.40
2017,06,24,13,44,26.40
2017,06,24,13,45,26.50
2017,06,24,13,46,26.60
2017,06,24,13,47,26.70
2017,06,24,13,48,26.80
2017,06,24,13,49,26.80
2017,06,24,13,50,26.80
2017,06,24,13,51,26.80
2017,06,24,13,52,26.80
2017,06,24,13,53,26.80
2017,06,24,13,54,26.80
2017,06,24,13,55,26.80
2017,06,24,13,56,26.90
2017,06,24,13,57,26.90
2017,06,24,13,58,26.90
2017,06,24,13,59,26.80
2017,06,24,14,00,26.90
2017,06,24,14,01,26.80
2017,06,24,14,02,26.80
2017,06,24,14,03,26.80
2017,06,24,14,04,26.70
2017,06,24,14,05,26.70
2017,06,24,14,06,26.70
2017,06,24,14,07,26.70
2017,06,24,14,08,26.70
2017,06,24,14,09,26.70
2017,06,24,14,10,26.70
2017,06,24,14,11,26.80
2017,06,24,14,12,26.80
2017,06,24,14,13,26.80
2017,06,24,14,14,26.90
2017,06,24,14,15,27.00
2017,06,24,14,16,27.00
2017,06,24,14,17,27.00
2017,06,24,14,18,27.10
2017,06,24,14,19,27.10
2017,06,24,14,20,27.10
2017,06,24,14,21,27.10
2017,06,24,14,22,27.10
2017,06,24,14,23,27.10
2017,06,24,14,24,27.10
2017,06,24,14,25,27.10
2017,06,24,14,26,27.20
2017,06,24,14,27,27.20
2017,06,24,14,28,27.20
2017,06,24,14,29,27.20
2017,06,24,14,30,27.30
2017,06,24,14,31,27.40
2017,06,24,14,32,27.40
2017,06,24,14,33,27.40
2017,06,24,14,34,27.40
2017,06,24,14,35,27.40
2017,06,24,14,36,27.50
2017,06,24,14,37,27.50
2017,06,24,14,38,27.50
2017,06,24,14,39,27.60
2017,06,24,14,40,27.60
2017,06,24,14,41,27.70
2017,06,24,14,42,27.80
2017,06,24,14,43,27.70
2017,06,24,14,44,27.70
2017,06,24,14,45,27.70
2017,06,24,14,46,27.70
2017,06,24,14,47,27.70
2017,06,24,14,48,27.60
2017,06,24,14,49,27.70
2017,06,24,14,50,27.60
2017,06,24,14,51,27.70
2017,06,24,14,52,27.70
2017,06,24,14,53,27.70
2017,06,24,14,54,27.60
2017,06,24,14,55,27.60
2017,06,24,14,56,27.60
2017,06,24,14,57,27.70
2017,06,24,14,58,27.70
2017,06,24,14,59,27.70
2017,06,24,15,00,27.70
2017,06,24,15,01,27.80
2017,06,24,15,02,27.80
2017,06,24,15,03,27.80
2017,06,24,15,04,27.80
2017,06,24,15,05,27.90
2017,06,24,15,06,28.00
2017,06,24,15,07,28.10
2017,06,24,15,08,28.10
2017,06,24,15,09,28.00
2017,06,24,15,10,27.90
2017,06,24,15,11,27.90
2017,06,24,15,12,28.00
2017,06,24,15,13,28.10
2017,06,24,15,14,28.10
2017,06,24,15,15,28.20
2017,06,24,15,16,28.20
2017,06,24,15,17,28.20
2017,06,24,15,18,28.20
2017,06,24,15,19,28.20
2017,06,24,15,20,28.10
2017,06,24,15,21,28.10
2017,06,24,15,22,28.10
2017,06,24,15,23,28.10
2017,06,24,15,24,28.10
2017,06,24,15,25,28.10
2017,06,24,15,26,28.00
2017,06,24,15,27,28.10
2017,06,24,15,28,28.10
2017,06,24,15,29,28.00
2017,06,24,15,30,28.00
2017,06,24,15,31,28.00
2017,06,24,15,32,28.00
2017,06,24,15,33,28.00
2017,06,24,15,34,28.10
2017,06,24,15,35,28.10
2017,06,24,15,36,28.20
2017,06,24,15,37,28.30
2017,06,24,15,38,28.30
2017,06,24,15,39,28.30
2017,06,24,15,40,28.20
2017,06,24,15,41,28.30
2017,06,24,15,42,28.30
2017,06,24,15,43,28.40
2017,06,24,15,44,28.50
2017,06,24,15,45,28.60
2017,06,24,15,46,28.50
2017,06,24,15,47,28.50
2017,06,24,15,48,28.50
2017,06,24,15,49,28.50
2017,06,24,15,50,28.60
2017,06,24,15,51,28.60
2017,06,24,15,52,28.60
2017,06,24,15,53,28.60
2017,06,24,15,54,28.50
2017,06,24,15,55,28.50
2017,06,24,15,56,28.50
2017,06,24,15,57,28.40
2017,06,24,15,58,28.40
2017,06,24,15,59,28.40
2017,06,24,16,00,28.40
2017,06,24,16,01,28.40
2017,06,24,16,02,28.40
2017,06,24,16,03,28.50
2017,06,24,16,04,28.50
2017,06,24,16,05,28.40
2017,06,24,16,06,28.40
2017,06,24,16,07,28.40
2017,06,24,16,08,28.50
2017,06,24,16,09,28.50
2017,06,24,16,10,28.60
2017,06,24,16,11,28.70
2017,06,24,16,12,28.80
2017,06,24,16,13,28.90
2017,06,24,16,14,29.00
2017,06,24,16,15,29.00
2017,06,24,16,16,29.00
2017,06,24,16,17,29.00
2017,06,24,16,18,29.00
2017,06,24,16,19,29.00
2017,06,24,16,20,29.00
2017,06,24,16,21,28.90
2017,06,24,16,22,28.80
2017,06,24,16,23,28.80
2017,06,24,16,24,28.70
2017,06,24,16,25,28.70
2017,06,24,16,26,28.70
2017,06,24,16,27,28.70
2017,06,24,16,28,28.60
2017,06,24,16,29,28.60
2017,06,24,16,30,28.60
2017,06,24,16,31,28.70
2017,06,24,16,32,28.70
2017,06,24,16,33,28.70
2017,06,24,16,34,28.80
2017,06,24,16,35,29.00
2017,06,24,16,36,29.10
2017,06,24,16,37,29.20
2017,06,24,16,38,29.10
2017,06,24,16,39,29.10
2017,06,24,16,40,29.00
2017,06,24,16,41,29.10
2017,06,24,16,42,29.10
2017,06,24,16,43,29.00
2017,06,24,16,44,29.00
2017,06,24,16,45,29.00
2017,06,24,16,46,28.90
2017,06,24,16,47,28.80
2017,06,24,16,48,28.80
2017,06,24,16,49,28.80
2017,06,24,16,50,28.70
2017,06,24,16,51,28.80
2017,06,24,16,52,28.80
2017,06,24,16,53,28.90
2017,06,24,16,54,28.90
2017,06,24,16,55,29.00
2017,06,24,16,56,29.00
2017,06,24,16,57,29.00
2017,06,24,16,58,29.00
2017,06,24,16,59,28.90
2017,06,24,17,00,28.90
2017,06,24,17,01,28.90
2017,06,24,17,02,28.90
2017,06,24,17,03,28.80
2017,06,24,17,04,28.80
2017,06,24,17,05,28.90
2017,06,24,17,06,28.90
2017,06,24,17,07,29.00
2017,06,24,17,08,29.00
2017,06,24,17,09,29.20
2017,06,24,17,10,29.20
2017,06,24,17,11,29.30
2017,06,24,17,12,29.30
2017,06,24,17,13,29.30
2017,06,24,17,14,29.30
2017,06,24,17,15,29.30
2017,06,24,17,16,29.20
2017,06,24,17,17,29.10
2017,06,24,17,18,29.10
2017,06,24,17,19,29.10